N411CE HEPS-HEAR

Flight info

Callsign N411CE
Flight time 0h 35m
Altitude 3500
Route DCT
Aircraft T240/L-SDGRY/S

Departure

Time 2026-05-07 20:01
Airport Port Said International Airport (HEPS)

Arrival

Time 2026-05-07 20:36
Airport El Arish International Airport (HEAR)
Time Latitude Longitude Altitude Speed Heading
2026-05-07 19:57 31.28032 32.24178 11 ft 0 kts 26°
2026-05-07 19:59 31.28035 32.24163 11 ft 9 kts 236°
2026-05-07 19:59 31.27959 32.24117 11 ft 15 kts 191°
2026-05-07 20:00 31.27915 32.24113 12 ft 0 kts 114°
2026-05-07 20:00 31.27890 32.24233 12 ft 43 kts 104°
2026-05-07 20:00 31.27755 32.24766 54 ft 87 kts 104°
2026-05-07 20:00 31.27754 32.25474 269 ft 91 kts 71°
2026-05-07 20:01 31.27870 32.26284 478 ft 115 kts 72°
2026-05-07 20:01 31.28053 32.27269 789 ft 131 kts 73°
2026-05-07 20:01 31.28265 32.28334 1125 ft 133 kts 70°
2026-05-07 20:01 31.28222 32.29415 1426 ft 148 kts 108°
2026-05-07 20:02 31.27505 32.30373 1685 ft 160 kts 128°
2026-05-07 20:02 31.26729 32.31362 1993 ft 175 kts 127°
2026-05-07 20:02 31.25897 32.32449 2238 ft 175 kts 121°
2026-05-07 20:02 31.25090 32.33561 2488 ft 177 kts 127°
2026-05-07 20:03 31.24280 32.34588 2746 ft 171 kts 126°
2026-05-07 20:03 31.23486 32.35605 2978 ft 167 kts 126°
2026-05-07 20:03 31.22709 32.36590 3224 ft 164 kts 126°
2026-05-07 20:03 31.21948 32.37563 3478 ft 167 kts 126°
2026-05-07 20:04 31.21138 32.38606 3502 ft 176 kts 125°
2026-05-07 20:04 31.20309 32.39679 3498 ft 180 kts 126°
2026-05-07 20:04 31.19490 32.40783 3486 ft 176 kts 124°
2026-05-07 20:04 31.18736 32.41863 3486 ft 171 kts 122°
2026-05-07 20:05 31.17984 32.42939 3483 ft 169 kts 122°
2026-05-07 20:05 31.17239 32.44002 3483 ft 168 kts 122°
2026-05-07 20:05 31.16496 32.45044 3483 ft 168 kts 123°
2026-05-07 20:05 31.15753 32.46086 3487 ft 168 kts 123°
2026-05-07 20:06 31.15001 32.47145 3481 ft 168 kts 123°
2026-05-07 20:06 31.14263 32.48186 3484 ft 168 kts 123°
2026-05-07 20:06 31.13497 32.49255 3498 ft 176 kts 123°
2026-05-07 20:06 31.12747 32.50373 3481 ft 175 kts 122°
2026-05-07 20:07 31.11978 32.51453 3479 ft 172 kts 123°
2026-05-07 20:07 31.11221 32.52515 3479 ft 170 kts 123°
2026-05-07 20:07 31.10466 32.53578 3476 ft 168 kts 123°
2026-05-07 20:07 31.09730 32.54629 3477 ft 168 kts 123°
2026-05-07 20:08 31.08984 32.55687 3470 ft 167 kts 123°
2026-05-07 20:08 31.08248 32.56730 3472 ft 167 kts 123°
2026-05-07 20:08 31.07509 32.57780 3471 ft 167 kts 123°
2026-05-07 20:08 31.06769 32.58830 3474 ft 167 kts 122°
2026-05-07 20:09 31.06186 32.59946 3472 ft 159 kts 97°
2026-05-07 20:09 31.06235 32.61196 3481 ft 152 kts 77°
2026-05-07 20:09 31.06366 32.62419 3479 ft 154 kts 79°
2026-05-07 20:10 31.06617 32.64919 3478 ft 155 kts 79°
2026-05-07 20:10 31.06749 32.66158 3482 ft 155 kts 79°
2026-05-07 20:10 31.06884 32.67403 3478 ft 154 kts 79°
2026-05-07 20:10 31.07021 32.68645 3482 ft 154 kts 78°
2026-05-07 20:11 31.07147 32.69875 3480 ft 154 kts 79°
2026-05-07 20:11 31.07276 32.71120 3479 ft 154 kts 79°
2026-05-07 20:11 31.07407 32.72367 3482 ft 154 kts 79°
2026-05-07 20:11 31.07547 32.73600 3481 ft 155 kts 78°
2026-05-07 20:12 31.07679 32.74854 3483 ft 155 kts 78°
2026-05-07 20:12 31.07815 32.76100 3484 ft 154 kts 79°
2026-05-07 20:12 31.07950 32.77330 3482 ft 153 kts 78°
2026-05-07 20:12 31.08088 32.78577 3500 ft 158 kts 78°
2026-05-07 20:13 31.08222 32.79894 3469 ft 164 kts 79°
2026-05-07 20:13 31.08449 32.81173 3481 ft 158 kts 71°
2026-05-07 20:13 31.08753 32.82403 3476 ft 156 kts 71°
2026-05-07 20:13 31.09045 32.83601 3471 ft 154 kts 70°
2026-05-07 20:14 31.09329 32.84805 3471 ft 153 kts 71°
2026-05-07 20:14 31.09614 32.86012 3471 ft 154 kts 71°
2026-05-07 20:14 31.09899 32.87220 3472 ft 154 kts 71°
2026-05-07 20:14 31.10188 32.88415 3491 ft 155 kts 71°
2026-05-07 20:15 31.10484 32.89656 3478 ft 160 kts 71°
2026-05-07 20:15 31.10783 32.90897 3474 ft 157 kts 71°
2026-05-07 20:15 31.10979 32.91712 3474 ft 156 kts 71°
2026-05-07 20:15 31.11311 32.93343 3470 ft 156 kts 80°
2026-05-07 20:16 31.11358 32.94200 3468 ft 156 kts 82°
2026-05-07 20:16 31.11451 32.95868 3473 ft 156 kts 82°
2026-05-07 20:16 31.11501 32.96727 3473 ft 156 kts 82°
2026-05-07 20:16 31.11575 32.97990 3478 ft 157 kts 82°
2026-05-07 20:17 31.11644 32.99259 3478 ft 158 kts 82°
2026-05-07 20:17 31.11715 33.00544 3491 ft 159 kts 82°
2026-05-07 20:17 31.11788 33.01844 3492 ft 163 kts 81°
2026-05-07 20:17 31.11858 33.03176 3491 ft 164 kts 82°
2026-05-07 20:18 31.11928 33.04519 3487 ft 169 kts 83°
2026-05-07 20:18 31.11981 33.05881 3473 ft 164 kts 82°
2026-05-07 20:18 31.12057 33.07191 3476 ft 163 kts 81°
2026-05-07 20:18 31.12147 33.08511 3474 ft 163 kts 82°
2026-05-07 20:19 31.12207 33.09835 3468 ft 162 kts 81°
2026-05-07 20:19 31.12270 33.11144 3471 ft 164 kts 82°
2026-05-07 20:19 31.12335 33.12450 3475 ft 160 kts 82°
2026-05-07 20:19 31.12401 33.13752 3472 ft 159 kts 82°
2026-05-07 20:20 31.12467 33.15030 3475 ft 159 kts 82°
2026-05-07 20:20 31.12533 33.16327 3473 ft 158 kts 82°
2026-05-07 20:20 31.12601 33.17600 3472 ft 158 kts 82°
2026-05-07 20:20 31.12669 33.18879 3475 ft 157 kts 82°
2026-05-07 20:21 31.12735 33.20148 3475 ft 158 kts 82°
2026-05-07 20:21 31.12694 33.21443 3472 ft 160 kts 90°
2026-05-07 20:21 31.12604 33.22733 3471 ft 163 kts 90°
2026-05-07 20:21 31.12518 33.24090 3482 ft 171 kts 90°
2026-05-07 20:22 31.12428 33.25504 3488 ft 175 kts 90°
2026-05-07 20:22 31.12332 33.26915 3491 ft 177 kts 90°
2026-05-07 20:22 31.12195 33.28347 3492 ft 176 kts 92°
2026-05-07 20:22 31.12061 33.29752 3494 ft 175 kts 91°
2026-05-07 20:23 31.11920 33.31175 3491 ft 175 kts 92°
2026-05-07 20:23 31.11782 33.32577 3490 ft 175 kts 92°
2026-05-07 20:23 31.11641 33.33994 3489 ft 175 kts 92°
2026-05-07 20:23 31.11499 33.35416 3490 ft 175 kts 92°
2026-05-07 20:24 31.11359 33.36832 3512 ft 176 kts 91°
2026-05-07 20:24 31.11218 33.38258 3517 ft 181 kts 90°
2026-05-07 20:24 31.11039 33.39746 3507 ft 185 kts 93°
2026-05-07 20:24 31.10883 33.41217 3500 ft 185 kts 91°
2026-05-07 20:25 31.10748 33.42705 3488 ft 182 kts 91°
2026-05-07 20:25 31.10614 33.44152 3504 ft 180 kts 92°
2026-05-07 20:25 31.10501 33.45633 3503 ft 184 kts 91°
2026-05-07 20:25 31.10361 33.47114 3509 ft 186 kts 92°
2026-05-07 20:26 31.10205 33.48624 3500 ft 186 kts 92°
2026-05-07 20:26 31.10048 33.50094 3495 ft 183 kts 92°
2026-05-07 20:26 31.09907 33.51564 3492 ft 179 kts 92°
2026-05-07 20:26 31.09761 33.52992 3491 ft 177 kts 92°
2026-05-07 20:27 31.09617 33.54417 3491 ft 177 kts 92°
2026-05-07 20:27 31.09474 33.55847 3494 ft 177 kts 91°
2026-05-07 20:27 31.09342 33.57263 3500 ft 175 kts 92°
2026-05-07 20:27 31.09198 33.58682 3506 ft 178 kts 91°
2026-05-07 20:28 31.09052 33.60122 3484 ft 177 kts 92°
2026-05-07 20:28 31.08906 33.61532 3486 ft 173 kts 92°
2026-05-07 20:28 31.08776 33.62924 3500 ft 176 kts 91°
2026-05-07 20:28 31.08651 33.64349 3488 ft 175 kts 91°
2026-05-07 20:29 31.08544 33.65762 3484 ft 173 kts 89°
2026-05-07 20:29 31.08449 33.67152 3486 ft 173 kts 90°
2026-05-07 20:29 31.08357 33.68555 3487 ft 173 kts 89°
2026-05-07 20:29 31.08267 33.69962 3492 ft 173 kts 89°
2026-05-07 20:30 31.08180 33.71373 3488 ft 178 kts 90°
2026-05-07 20:30 31.08090 33.72808 3489 ft 176 kts 89°
2026-05-07 20:30 31.08012 33.74221 3486 ft 176 kts 89°
2026-05-07 20:30 31.07914 33.75640 3500 ft 176 kts 90°
2026-05-07 20:31 31.07787 33.77065 3491 ft 179 kts 97°
2026-05-07 20:31 31.07134 33.78322 3442 ft 184 kts 131°
2026-05-07 20:31 31.06190 33.79302 3161 ft 180 kts 134°
2026-05-07 20:31 31.05228 33.80229 2847 ft 183 kts 138°
2026-05-07 20:32 31.04212 33.81147 2529 ft 184 kts 138°
2026-05-07 20:32 31.03215 33.82077 2187 ft 183 kts 137°
2026-05-07 20:32 31.02235 33.82995 1869 ft 176 kts 138°
2026-05-07 20:32 31.01304 33.83873 1531 ft 171 kts 138°
2026-05-07 20:33 31.00571 33.84913 1191 ft 163 kts 106°
2026-05-07 20:33 31.00640 33.86145 891 ft 150 kts 58°
2026-05-07 20:33 31.01407 33.86743 891 ft 127 kts
2026-05-07 20:33 31.02198 33.86555 893 ft 106 kts 343°
2026-05-07 20:34 31.02769 33.86100 837 ft 97 kts 314°
2026-05-07 20:34 31.03285 33.85657 723 ft 91 kts 339°
2026-05-07 20:34 31.03847 33.85351 610 ft 88 kts 339°
2026-05-07 20:34 31.04405 33.85052 502 ft 89 kts 338°
2026-05-07 20:35 31.04970 33.84764 385 ft 90 kts 337°
2026-05-07 20:35 31.05533 33.84477 271 ft 87 kts 337°
2026-05-07 20:35 31.06085 33.84191 172 ft 85 kts 339°
2026-05-07 20:35 31.06612 33.83934 125 ft 79 kts 338°
2026-05-07 20:36 31.07078 33.83707 115 ft 65 kts 337°
2026-05-07 20:36 31.07450 33.83533 113 ft 52 kts 337°
2026-05-07 20:36 31.07692 33.83437 114 ft 19 kts 35°
2026-05-07 20:36 31.07789 33.83529 112 ft 17 kts 72°
2026-05-07 20:37 31.07790 33.83566 112 ft 0 kts 95°